Weather History for KDIK - September, 2013

Change the Weather History Date:

Tuesday, September 3, 2013

  Actual Average Record
Temperature  
Mean Temperature 77 °F 63 °F  
Max Temperature 92 °F 77 °F 99 °F (2007)
Min Temperature 62 °F 48 °F 28 °F (1905)
Degree Days  
Heating Degree Days 0 5  
Month to date heating degree days 1 13  
Since 1 July heating degree days 41 99  
Cooling Degree Days 12 2  
Month to date cooling degree days 18 8  
Year to date cooling degree days 330 394  
Growing Degree Days 27 (Base 50)    
Moisture  
Dew Point 54 °F    
Average Humidity 48    
Maximum Humidity 78    
Minimum Humidity 18    
Precipitation  
Precipitation T in 0.05 in 1.19 in (1973)
Month to date precipitation T 0.15  
Year to date precipitation 13.17 12.44  
Sea Level Pressure  
Sea Level Pressure 29.94 in    
Wind  
Wind Speed 6 mph (SE)    
Max Wind Speed 13 mph    
Max Gust Speed -    
Visibility 10 miles    
Events      
T = Trace of Precipitation, MM = Missing Value Source: NWS Daily Summary

Daily Weather History Graph

Daily Weather History Graph

Search for Another Location

Airport or City:

Trip Planner

Search our weather history database for the weather conditions in past years. The results will help you decide how hot, cold, wet, or windy it might be!

Date:

Astronomy

Sep. 03, 2013 Rise Set
Actual Time 6:13 AM MDT 7:26 PM MDT
Civil Twilight 5:42 AM MDT 7:57 PM MDT
Nautical Twilight 5:04 AM MDT 8:34 PM MDT
Astronomical Twilight 4:24 AM MDT 9:14 PM MDT
Moon 4:26 AM MDT (9/3) 6:15 PM MDT (9/3)
Length of Visible Light 14h 14m
Length of Day
13h 12m
Waning Crescent, 3% of the Moon is Illuminated
Sep 3
Waning Crescent
Sep 5
New
Sep 12
First Quarter
Sep 19
Full
Sep 26
Last Quarter

Hourly Weather History & Observations

Time (MDT) Temp. Heat Index Dew Point Humidity Pressure Visibility Wind Dir Wind Speed Gust Speed Precip Events Conditions
12:56 AM 66.9 °F - 55.9 °F 68% 29.91 in 10.0 mi South 11.5 mph - N/A   Clear
1:56 AM 66.9 °F - 55.9 °F 68% 29.90 in 10.0 mi SSE 10.4 mph - N/A   Clear
2:56 AM 66.9 °F - 55.9 °F 68% 29.89 in 10.0 mi South 11.5 mph - N/A   Clear
3:56 AM 64.9 °F - 55.9 °F 73% 29.90 in 10.0 mi SSE 5.8 mph - N/A   Clear
4:56 AM 64.0 °F - 55.9 °F 75% 29.89 in 10.0 mi South 8.1 mph - N/A   Clear
5:56 AM 63.0 °F - 55.0 °F 75% 29.90 in 10.0 mi SE 3.5 mph - N/A   Clear
6:56 AM 64.0 °F - 55.9 °F 75% 29.93 in 10.0 mi Calm Calm - N/A   Clear
7:56 AM 63.0 °F - 55.9 °F 78% 29.94 in 10.0 mi Calm Calm - N/A   Scattered Clouds
8:56 AM 64.0 °F - 57.0 °F 78% 29.95 in 10.0 mi SSW 12.7 mph - 0.00 in   Partly Cloudy
9:56 AM 68.0 °F - 57.9 °F 70% 29.95 in 10.0 mi Calm Calm - N/A   Clear
10:56 AM 73.9 °F - 57.9 °F 57% 29.96 in 10.0 mi SSW 8.1 mph - N/A   Clear
11:56 AM 77.0 °F - 59.0 °F 54% 29.94 in 10.0 mi SE 4.6 mph - N/A   Clear
12:56 PM 81.0 °F 81.3 °F 59.0 °F 47% 29.94 in 10.0 mi South 3.5 mph - N/A   Clear
1:56 PM 89.1 °F 86.7 °F 53.1 °F 29% 29.93 in 10.0 mi Variable 6.9 mph - N/A   Clear
2:56 PM 91.0 °F - 50.0 °F 24% 29.92 in 10.0 mi NE 8.1 mph - N/A   Clear
3:56 PM 91.9 °F - 48.9 °F 23% 29.91 in 10.0 mi Variable 4.6 mph - N/A   Clear
4:56 PM 91.0 °F - 43.0 °F 19% 29.93 in 10.0 mi East 8.1 mph - N/A   Clear
5:56 PM 87.1 °F - 46.0 °F 24% 29.94 in 10.0 mi East 6.9 mph - N/A   Clear
6:56 PM 79.0 °F - 46.0 °F 31% 29.95 in 10.0 mi East 6.9 mph - N/A   Clear
7:56 PM 71.1 °F - 48.0 °F 44% 29.97 in 10.0 mi East 8.1 mph - N/A   Clear
8:56 PM 68.0 °F - 53.1 °F 59% 29.99 in 10.0 mi East 8.1 mph - N/A   Clear
9:56 PM 64.0 °F - 54.0 °F 70% 30.01 in 10.0 mi SSE 6.9 mph - N/A   Clear
10:56 PM 64.0 °F - 55.9 °F 75% 30.01 in 10.0 mi SE 8.1 mph - N/A   Clear
11:56 PM 64.0 °F - 57.0 °F 78% 30.01 in 10.0 mi SSE 3.5 mph - N/A   Clear